Temp
18 19 19 19 20 20 21 21 22 22 22 23 23 24 24 25 25 25 25 24 25 24 24 24 24 24 25 20 19 17 19 23 27 28 29 29 28 28 27 25 24 24 23 23 22
18 18 19 19 19 20 20 21 21 22 22 22 23 24 24 25 25 26 26 26 25 25 24 24 25 26 25 20 20 18 19 24 30 30 29 29 29 29 28 25 25 24 23 23 23
18 18 19 19 19 20 20 21 21 21 22 22 23 23 24 24 25 26 26 26 25 25 25 25 26 27 22 21 21 17 20 29 30 31 31 30 29 29 28 25 25 23 24 24 22
18 18 19 19 19 19 20 20 21 21 22 22 23 23 24 24 25 26 26 26 25 25 25 26 26 27 25 22 21 19 22 29 30 29 30 30 30 29 28 26 25 24 24 24 24
18 18 19 19 19 19 20 20 21 21 22 22 23 23 24 24 25 26 26 25 25 25 26 26 28 30 26 26 25 24 28 30 28 28 27 29 29 28 27 26 25 24 25 24 24
18 18 19 19 19 20 20 21 21 22 22 23 23 23 24 23 26 27 26 26 26 25 26 27 29 30 30 27 28 28 29 29 28 28 27 26 25 28 27 26 25 25 25 25 25
18 19 19 20 20 20 20 21 21 22 22 23 23 24 24 26 27 27 27 27 27 26 27 28 29 29 30 29 28 28 27 27 27 28 27 27 23 26 27 26 25 25 25 25 25
18 19 19 20 20 21 21 21 21 22 22 23 24 24 25 27 27 27 26 27 27 28 28 29 29 29 29 29 26 25 26 22 27 26 25 26 23 24 27 26 26 25 25 25 25
18 19 19 20 21 21 22 22 22 22 23 24 24 24 25 27 27 27 27 28 28 29 29 29 29 29 30 29 24 23 24 25 26 27 26 24 23 26 26 27 26 26 26 26 26
18 19 20 20 21 22 22 22 23 23 23 24 24 22 26 27 27 28 28 28 29 29 30 30 30 27 27 29 26 26 25 27 26 27 27 24 26 27 28 27 27 26 27 26 26
18 19 20 21 21 22 23 23 24 25 24 25 27 28 28 28 28 28 28 28 28 29 26 30 26 25 30 30 31 31 30 29 28 29 28 28 27 27 28 28 27 27 27 27 26
18 19 20 21 21 22 23 23 25 26 26 27 27 28 29 29 28 28 29 28 29 26 28 27 26 29 32 31 31 30 30 30 29 29 27 29 30 29 28 29 28 27 27 27 27
18 19 21 21 22 22 23 24 25 26 26 27 28 28 29 28 29 29 29 29 28 27 27 26 29 32 31 30 30 28 29 28 29 29 29 29 27 28 29 29 29 28 27 27 27
18 19 20 22 22 23 24 25 25 26 22 27 28 29 29 28 29 29 29 29 30 27 27 28 31 31 30 30 30 27 29 29 29 27 25 29 24 27 28 28 29 29 27 28 28
17 19 20 21 22 23 24 25 26 26 21 28 28 29 29 29 29 29 29 29 27 27 30 29 27 30 30 29 29 28 28 27 28 26 25 26 25 27 28 24 26 25 23 24 25
17 18 20 20 22 24 24 25 25 22 22 28 29 28 28 29 30 29 28 28 29 29 29 29 30 29 29 29 29 29 28 26 26 24 21 24 24 24 27 26 23 23 23 24 25
18 18 19 20 22 23 23 24 21 21 29 27 26 28 26 27 28 29 27 27 25 26 25 28 28 28 29 28 28 28 25 21 22 22 21 25 26 27 26 25 26 25 25 25 25
18 19 20 21 22 22 23 22 21 26 26 30 29 27 26 27 28 29 28 26 28 26 24 25 24 27 29 27 27 26 25 20 23 23 23 25 25 26 28 28 27 26 25 25 23
19 20 20 22 22 22 21 19 21 24 29 30 28 27 27 28 28 29 27 25 26 24 23 22 25 28 28 28 27 25 22 25 24 25 23 25 26 24 25 26 27 27 27 27 26
19 20 22 21 22 22 20 19 23 27 28 29 27 28 26 27 27 26 27 27 26 26 26 25 24 27 27 28 28 27 26 21 19 22 24 24 26 23 24 24 25 25 25 26 26
19 19 23 22 22 22 19 21 24 26 27 28 28 28 28 27 26 26 26 26 27 26 27 25 23 24 28 26 25 24 23 24 21 21 21 21 22 24 23 24 23 24 26 25 25
18 19 23 23 22 22 20 23 25 26 27 30 29 28 28 29 26 25 23 24 26 26 23 22 22 20 24 27 27 26 26 24 18 21 20 21 21 23 22 24 25 25 25 25 24
15 18 22 23 19 20 22 24 25 26 27 28 28 29 28 28 26 24 23 25 24 22 20 21 19 19 22 25 23 26 26 26 22 21 21 20 22 24 25 22 21 21 23 23 23
14 19 22 22 22 22 20 21 23 25 28 28 28 28 26 26 23 24 23 24 23 22 22 23 20 20 18 22 22 22 23 24 22 19 20 21 24 22 22 20 20 20 20 20 20
16 20 19 20 21 21 21 21 22 23 28 28 26 27 26 26 24 25 23 22 23 23 23 21 20 21 20 22 22 22 23 23 22 22 21 21 20 18 19 18 20 20 20 19 19
17 17 17 18 22 21 20 20 23 26 27 25 25 27 26 26 25 24 24 22 21 21 21 21 19 21 20 22 22 22 23 24 23 23 22 21 18 19 19 19 20 20 19 19 19
14 15 16 19 21 20 20 22 23 23 26 25 25 23 22 24 25 25 25 24 22 22 20 20 18 17 18 20 20 19 22 22 22 20 19 17 17 18 17 18 18 18 17 16 16
Height
1522 1520 1519 1517 1516 1514 1513 1511 1510 1508 1507 1506 1506 1506 1505 1505 1504 1503 1504 1506 1506 1504 1503 1504 1503 1505 1512 1515 1525 1522 1525 1514 1504 1502 1500 1499 1500 1503 1507 1514 1517 1518 1526 1532 1539
1522 1520 1518 1516 1515 1513 1512 1510 1509 1507 1506 1504 1504 1504 1504 1504 1503 1502 1504 1505 1505 1504 1502 1503 1503 1502 1510 1513 1522 1514 1520 1507 1493 1492 1495 1498 1499 1503 1508 1513 1520 1524 1530 1534 1537
1521 1520 1518 1515 1514 1513 1511 1509 1508 1506 1505 1503 1503 1503 1503 1503 1504 1500 1501 1504 1504 1505 1502 1501 1502 1503 1511 1510 1512 1516 1514 1493 1494 1493 1495 1497 1499 1502 1507 1515 1517 1524 1528 1534 1538
1521 1519 1517 1515 1513 1512 1510 1509 1507 1505 1504 1502 1502 1502 1503 1504 1506 1501 1501 1502 1504 1504 1503 1500 1499 1500 1503 1507 1509 1513 1503 1497 1497 1497 1498 1499 1499 1504 1507 1513 1518 1525 1530 1533 1537
1520 1518 1516 1514 1512 1511 1509 1508 1506 1504 1502 1501 1501 1501 1503 1504 1502 1500 1501 1500 1503 1503 1500 1498 1497 1495 1499 1498 1501 1505 1498 1499 1502 1503 1504 1501 1502 1506 1512 1518 1521 1527 1532 1535 1538
1519 1517 1515 1513 1512 1510 1508 1506 1504 1502 1501 1501 1501 1501 1503 1505 1501 1501 1502 1502 1502 1501 1498 1499 1498 1495 1491 1494 1497 1498 1500 1503 1505 1507 1507 1507 1509 1508 1517 1519 1524 1529 1533 1535 1537
1519 1516 1514 1512 1511 1509 1507 1506 1504 1502 1501 1501 1501 1502 1502 1501 1499 1500 1500 1503 1502 1500 1500 1498 1496 1498 1496 1495 1498 1502 1502 1503 1505 1507 1508 1509 1515 1516 1515 1521 1526 1529 1532 1534 1536
1518 1516 1513 1511 1510 1507 1506 1505 1503 1501 1501 1501 1502 1503 1500 1500 1500 1500 1501 1501 1501 1502 1500 1499 1497 1495 1494 1494 1501 1508 1512 1524 1507 1507 1508 1510 1526 1512 1517 1520 1526 1528 1530 1533 1535
1517 1515 1512 1510 1509 1507 1505 1504 1502 1501 1501 1502 1504 1504 1501 1498 1499 1501 1501 1501 1502 1501 1500 1498 1497 1494 1490 1494 1511 1514 1521 1515 1512 1503 1505 1507 1518 1509 1513 1516 1522 1525 1528 1531 1533
1517 1514 1512 1510 1508 1506 1505 1504 1503 1502 1502 1503 1504 1508 1500 1497 1497 1499 1500 1501 1500 1499 1499 1498 1494 1494 1490 1493 1518 1509 1514 1507 1509 1502 1501 1509 1507 1504 1507 1511 1516 1520 1523 1527 1531
1516 1513 1511 1510 1508 1506 1506 1505 1506 1506 1503 1500 1498 1495 1493 1496 1497 1498 1500 1500 1501 1500 1501 1494 1501 1505 1488 1479 1482 1485 1490 1498 1498 1493 1498 1499 1499 1500 1501 1507 1511 1514 1518 1522 1526
1515 1512 1510 1508 1508 1506 1506 1505 1504 1506 1502 1496 1494 1496 1494 1494 1497 1497 1499 1500 1498 1501 1495 1498 1504 1486 1480 1481 1485 1487 1491 1495 1492 1490 1497 1492 1493 1492 1495 1498 1501 1506 1511 1517 1522
1515 1511 1508 1507 1506 1506 1506 1504 1503 1502 1500 1492 1492 1493 1494 1496 1493 1493 1496 1496 1496 1498 1494 1501 1492 1481 1482 1488 1493 1495 1497 1498 1499 1491 1488 1490 1500 1493 1491 1495 1500 1502 1506 1512 1517
1514 1510 1508 1506 1508 1504 1503 1502 1503 1503 1508 1491 1488 1489 1492 1493 1493 1492 1495 1497 1492 1497 1491 1491 1483 1485 1488 1492 1492 1509 1491 1491 1495 1505 1523 1491 1533 1494 1488 1492 1491 1496 1504 1509 1514
1513 1509 1508 1506 1505 1504 1504 1501 1502 1503 1537 1478 1485 1486 1489 1491 1490 1492 1494 1494 1495 1492 1489 1493 1491 1489 1493 1495 1490 1500 1494 1497 1497 1507 1511 1503 1519 1492 1480 1497 1491 1499 1505 1514 1515
1511 1508 1506 1505 1503 1504 1503 1502 1504 1516 1525 1482 1481 1485 1487 1487 1487 1492 1493 1494 1491 1488 1485 1489 1488 1489 1494 1492 1492 1491 1496 1499 1501 1513 1542 1507 1514 1507 1487 1491 1500 1505 1511 1514 1517
1507 1505 1503 1502 1501 1503 1504 1502 1516 1525 1472 1483 1484 1481 1486 1489 1487 1488 1492 1494 1500 1508 1506 1489 1491 1492 1494 1499 1494 1496 1511 1544 1544 1543 1544 1495 1508 1501 1484 1491 1496 1501 1504 1513 1520
1503 1501 1499 1498 1500 1502 1502 1504 1524 1490 1484 1469 1472 1478 1489 1483 1485 1486 1489 1497 1488 1492 1505 1510 1522 1496 1495 1500 1505 1505 1510 1545 1551 1549 1530 1489 1517 1509 1484 1487 1494 1503 1510 1517 1524
1499 1496 1494 1494 1497 1501 1504 1516 1506 1489 1471 1469 1472 1483 1487 1482 1484 1486 1490 1498 1495 1496 1515 1519 1514 1494 1496 1498 1501 1509 1526 1506 1524 1511 1529 1511 1503 1503 1497 1499 1501 1506 1511 1517 1521
1497 1493 1489 1492 1496 1499 1502 1506 1490 1479 1474 1470 1480 1477 1491 1486 1491 1495 1493 1491 1497 1498 1499 1505 1521 1496 1499 1498 1499 1504 1504 1534 1535 1549 1544 1531 1519 1525 1511 1510 1509 1512 1515 1520 1523
1497 1494 1486 1490 1496 1500 1505 1497 1485 1478 1476 1474 1474 1476 1477 1482 1486 1493 1495 1494 1494 1499 1500 1504 1514 1514 1499 1505 1510 1514 1521 1517 1524 1531 1552 1560 1543 1503 1510 1510 1515 1517 1520 1523 1527
1499 1497 1491 1493 1497 1495 1498 1490 1484 1478 1474 1468 1470 1472 1475 1473 1484 1494 1505 1501 1499 1501 1514 1512 1516 1533 1515 1499 1495 1502 1511 1518 1550 1546 1540 1544 1547 1513 1514 1516 1518 1520 1524 1526 1528
1502 1497 1493 1493 1500 1498 1493 1489 1486 1480 1475 1471 1473 1471 1471 1476 1490 1493 1503 1505 1505 1509 1520 1519 1529 1543 1524 1512 1508 1509 1508 1509 1518 1526 1542 1557 1548 1515 1516 1520 1524 1526 1528 1529 1529
1506 1498 1493 1493 1493 1494 1496 1493 1487 1474 1468 1470 1473 1473 1478 1484 1486 1498 1505 1507 1510 1514 1516 1516 1526 1534 1551 1533 1523 1526 1518 1515 1522 1544 1541 1538 1527 1528 1525 1529 1530 1530 1531 1532 1531
1508 1500 1498 1497 1493 1493 1494 1494 1489 1480 1468 1470 1475 1477 1482 1491 1496 1496 1502 1507 1510 1515 1517 1519 1533 1527 1525 1521 1522 1524 1522 1519 1525 1525 1536 1532 1537 1541 1537 1535 1534 1535 1534 1533 1532
1510 1508 1503 1500 1495 1495 1496 1494 1483 1468 1469 1475 1479 1481 1484 1490 1493 1499 1498 1505 1511 1516 1518 1518 1533 1525 1531 1522 1520 1523 1516 1514 1516 1518 1520 1524 1537 1534 1538 1537 1537 1537 1535 1535 1534
1513 1510 1509 1501 1496 1496 1496 1491 1483 1476 1473 1479 1480 1489 1495 1494 1491 1496 1499 1504 1509 1514 1520 1522 1531 1539 1543 1529 1528 1537 1519 1515 1515 1521 1527 1542 1540 1533 1534 1534 1536 1537 1537 1536 1534
Wind_Speed
10 11 11 11 10 10 10 11 11 12 13 13 10 9 8 7 7 6 5 2 0 2 6 3 2 3 7 21 16 11 3 3 5 7 15 21 17 21 29 37 31 16 34 32 36
11 11 11 11 10 9 9 9 10 10 10 11 10 7 8 8 9 10 9 4 2 9 3 3 4 10 5 10 5 5 1 4 5 7 15 22 20 18 15 29 30 32 34 34 32
12 12 12 11 10 9 8 9 9 9 9 9 8 5 7 7 7 8 7 4 4 6 3 3 7 8 22 12 7 8 5 4 9 14 17 20 16 22 24 16 30 37 34 33 34
13 12 12 11 10 9 9 9 10 10 9 8 7 5 6 4 3 3 6 6 6 5 5 6 9 5 9 8 16 4 18 12 12 17 10 6 22 20 17 30 37 33 33 31 28
14 13 12 11 10 10 11 11 11 10 9 7 6 4 3 4 8 3 4 8 10 5 7 13 15 6 3 10 9 6 4 14 16 13 14 15 18 19 24 32 34 31 27 29 29
15 13 12 11 9 10 12 11 9 7 6 5 4 2 2 5 2 3 7 8 6 7 12 18 13 14 12 8 7 14 18 8 16 13 9 8 10 21 24 32 31 28 26 25 27
16 14 13 11 8 10 10 8 7 5 4 2 2 3 4 6 3 2 7 5 3 6 16 15 10 13 18 12 18 13 5 4 7 4 2 6 5 6 27 27 28 28 26 24 25
18 15 13 11 8 10 9 7 6 4 2 2 4 3 5 4 5 2 5 7 7 9 13 13 12 17 14 23 10 9 2 2 5 9 3 2 4 11 19 28 25 27 28 26 24
19 16 13 11 8 9 8 6 3 1 1 4 5 2 8 4 8 9 12 11 10 9 10 11 12 13 19 5 4 2 3 5 6 10 8 4 4 16 22 29 26 26 26 26 27
19 17 13 11 8 8 6 2 3 3 2 6 6 6 10 8 8 10 6 8 6 8 12 14 11 5 7 6 5 6 6 11 7 10 9 10 7 13 28 30 28 30 29 27 26
20 17 14 10 7 7 1 3 4 3 10 10 4 9 7 11 8 5 7 4 7 11 7 15 4 8 9 7 2 4 6 10 7 8 9 11 12 19 25 25 27 29 31 30 30
21 18 14 10 6 7 7 7 9 9 11 20 15 10 3 7 8 11 8 5 11 7 10 6 7 10 7 7 7 8 8 6 5 8 6 6 5 19 22 22 32 31 31 32 30
21 19 14 10 6 5 4 12 11 7 7 16 16 13 10 6 15 14 9 11 10 6 10 7 5 7 7 7 7 7 5 7 4 6 7 4 6 10 16 19 24 31 35 33 32
21 19 15 7 4 5 8 8 7 6 3 6 12 8 9 11 6 11 4 5 3 9 10 8 6 6 5 4 4 5 8 10 9 5 3 3 5 6 16 17 16 27 31 33 32
20 18 13 10 7 8 10 4 8 3 3 12 9 9 13 12 8 4 5 9 9 10 3 3 9 3 0 5 7 2 9 7 6 7 7 13 2 7 21 7 6 12 22 14 22
20 17 13 13 15 3 7 8 2 2 6 7 8 8 5 12 5 7 6 11 11 4 7 2 6 5 3 6 4 7 5 8 5 2 3 12 6 7 14 9 6 17 18 13 12
19 17 15 14 13 5 10 12 0 4 5 7 10 8 9 9 6 6 7 6 4 2 6 5 6 6 3 3 5 5 3 3 3 0 6 7 2 2 16 19 17 16 22 17 17
19 16 15 16 14 5 4 2 5 9 11 2 7 10 9 9 7 6 6 5 2 7 4 3 4 8 3 5 3 5 2 4 3 3 6 8 6 1 18 25 29 29 27 24 26
19 12 11 9 15 7 8 4 6 6 9 4 7 6 8 5 5 0 5 7 7 8 5 6 4 6 10 5 4 7 4 6 1 5 4 2 6 7 9 14 25 27 30 28 28
21 13 14 4 14 5 2 8 9 15 21 13 5 7 8 8 5 6 4 5 5 8 8 5 3 7 6 1 4 3 3 5 5 4 4 4 4 7 7 12 15 18 27 25 24
15 9 3 13 13 12 4 7 12 27 28 10 3 4 4 8 10 6 3 8 8 7 4 5 3 5 3 5 4 1 3 3 2 4 2 3 4 8 10 13 13 19 21 17 19
8 4 9 8 6 5 6 9 18 25 37 0 5 7 5 1 7 6 11 7 15 6 5 7 2 3 5 4 7 6 3 3 4 7 2 3 2 7 11 17 20 20 18 14 12
13 11 3 7 2 4 8 15 23 19 17 2 3 4 7 3 4 13 9 13 20 8 3 5 4 4 7 4 10 4 4 2 2 1 3 4 4 8 18 25 30 31 20 16 15
7 3 3 5 9 3 6 12 9 26 3 4 4 3 6 6 8 7 11 8 19 10 7 4 2 1 3 2 4 6 9 8 4 2 3 4 1 17 14 16 23 28 26 25 24
4 4 8 3 3 5 3 10 17 20 6 7 4 5 6 2 7 2 12 9 11 8 3 2 1 5 8 8 7 7 8 9 6 6 2 7 8 8 9 9 20 21 23 25 26
8 7 14 13 7 5 4 8 16 2 4 6 6 3 2 1 3 5 4 6 6 7 6 4 2 3 5 8 9 7 7 8 8 6 6 7 8 10 20 22 22 20 19 18 22
13 11 6 9 7 4 3 11 15 18 9 22 6 12 14 14 25 19 16 21 12 6 3 3 3 5 4 8 9 6 5 6 6 13 7 8 4 15 14 20 22 23 21 24 24
Wind_Direction
348 344 340 334 328 321 315 309 305 304 303 301 301 301 293 283 268 280 356 293 293 119 173 140 284 191 171 107 129 187 232 261 122 133 105 93 97 98 128 135 146 130 141 143 146
349 347 344 340 336 330 324 318 312 308 304 299 299 292 280 274 270 260 270 261 175 157 164 280 274 241 112 64 98 212 293 261 133 86 124 127 127 127 113 107 119 130 140 147 155
347 346 345 343 341 340 336 328 320 313 306 298 295 280 265 284 312 255 220 199 170 186 192 305 257 298 102 139 185 178 218 84 68 105 96 125 129 133 123 126 138 145 151 155 149
344 342 344 343 345 343 341 334 322 314 305 296 291 266 265 263 7 249 203 189 157 153 286 299 274 242 122 156 196 172 236 74 62 55 81 90 98 78 140 137 137 141 148 152 158
344 340 341 341 343 343 339 332 319 309 297 291 286 251 249 248 262 246 174 160 174 212 290 302 301 260 185 172 172 185 174 93 79 65 47 62 96 99 105 132 138 145 153 160 163
345 339 337 338 336 339 338 335 331 320 294 285 266 230 224 278 203 213 168 171 183 288 310 292 299 340 316 150 56 81 72 66 88 73 58 54 14 111 118 133 139 152 157 171 171
347 340 335 336 331 335 339 339 343 334 303 263 221 187 235 298 227 240 182 215 237 296 298 325 342 326 308 96 99 96 111 120 87 110 119 83 12 110 134 140 148 160 168 180 175
348 342 335 333 327 332 334 328 335 325 286 189 178 190 275 204 194 231 224 257 276 287 279 302 312 306 285 128 65 80 355 300 153 126 305 175 210 236 154 148 162 170 178 185 176
347 343 336 330 323 327 325 324 338 25 160 168 163 291 280 232 193 209 216 249 247 255 279 285 291 274 288 188 89 272 214 213 149 225 151 127 188 227 180 160 173 177 183 184 180
345 342 335 329 321 321 323 353 90 86 135 167 184 287 235 219 196 210 218 266 293 310 288 263 265 253 275 256 193 180 212 191 159 181 176 185 187 195 177 169 176 179 180 183 183
342 339 334 325 310 310 272 315 11 100 172 219 222 229 171 123 146 225 206 230 250 280 279 287 248 252 300 109 101 336 293 139 175 180 183 196 203 174 183 181 175 181 181 186 183
340 335 331 319 292 291 259 303 340 310 290 267 268 260 101 169 196 232 195 242 225 240 251 285 249 275 93 53 17 332 320 151 147 168 174 198 214 176 185 194 181 181 180 185 185
338 331 327 316 292 280 283 304 341 319 282 289 214 233 205 235 247 200 183 233 256 271 266 237 292 48 39 15 6 319 4 6 135 204 224 193 269 170 185 187 184 186 181 183 186
335 330 321 307 288 256 280 346 316 310 319 250 203 199 151 214 252 123 159 305 262 230 262 250 109 47 13 340 320 44 10 12 1 36 284 52 270 196 174 187 204 183 176 182 182
331 325 315 293 260 272 345 33 311 297 288 147 167 162 170 206 128 165 213 246 267 285 305 341 39 114 79 14 30 90 25 349 328 330 353 299 30 284 161 177 198 53 104 111 118
327 317 305 281 248 186 28 346 325 354 246 179 136 177 199 230 175 139 200 230 279 277 322 89 79 10 58 6 19 334 338 309 274 212 300 248 160 291 173 144 106 110 105 88 140
321 305 290 254 238 229 301 283 112 227 172 155 164 162 200 202 178 173 195 218 208 221 250 223 157 96 46 289 264 225 332 309 342 334 222 228 11 231 102 118 132 135 140 171 168
321 299 282 245 226 224 308 351 239 250 246 174 169 165 195 202 176 212 183 232 193 31 308 218 88 135 184 85 10 315 59 136 304 352 268 343 122 66 118 118 117 127 139 145 162
329 309 279 236 206 195 292 234 215 253 276 291 155 142 220 103 74 94 265 84 46 55 39 25 82 91 62 27 55 325 62 255 311 284 34 81 43 46 87 93 89 84 80 74 76
332 316 258 196 185 179 248 240 247 256 269 294 157 190 204 135 120 175 231 96 93 60 28 319 13 137 134 192 222 183 287 16 352 10 338 25 141 175 115 88 85 78 70 63 61
337 310 267 183 177 205 220 242 268 263 272 270 257 235 283 165 157 220 72 76 76 91 54 343 34 310 113 203 183 319 349 356 158 138 144 33 312 101 104 102 92 86 79 68 58
352 292 130 151 194 228 247 257 271 282 294 100 327 304 281 166 164 103 66 74 62 66 52 355 1 340 274 341 94 92 65 75 99 308 349 137 341 77 58 62 88 92 93 95 75
334 283 202 176 211 256 290 273 291 296 277 -0 275 328 5 37 84 104 91 68 61 53 62 343 346 343 308 18 26 25 89 16 335 115 281 111 230 72 57 61 55 46 51 53 54
322 304 141 195 248 310 337 308 297 306 110 192 275 19 67 50 63 110 128 97 91 94 66 42 293 269 218 309 1 352 343 352 28 48 298 240 256 34 44 60 50 44 37 27 21
274 316 11 322 250 207 321 300 296 291 205 187 62 90 94 1 101 46 105 122 112 114 86 76 290 345 337 343 334 313 307 310 315 287 279 286 49 57 52 56 50 45 32 18 3
338 351 342 304 358 357 286 279 322 230 82 70 64 29 167 96 158 154 139 163 140 208 153 203 263 320 320 299 300 322 311 281 233 263 278 356 58 32 49 39 33 30 22 7 342
12 349 343 288 335 336 289 5 10 4 114 60 24 52 46 25 72 60 65 69 91 96 45 64 50 21 310 333 339 327 283 26 49 70 63 55 31 25 27 19 9 1 16 13 7